Tracking 20712 objects as of 29-May-2020
HD Live streaming from Space Station
objects crossing your sky now

ATLAS 2AS CENTAUR R/B

Track ATLAS 2AS CENTAUR R/B now!


NORAD ID: 24937
Int'l Code: 1997-050B
Perigee: 328.8 km
Apogee: 37,658.1 km
Inclination: 19.1 °
Period: 670.0 minutes
Semi major axis: 25364 km
RCS: 13.7884 m2 (large)
Launch date: September 4, 1997
Source: United States (US)
Launch site: AIR FORCE EASTERN TEST RANGE (AFETR)

Note: This is a ROCKET BODY
aabbcc
Your satellite tracking list
Your tracking list is empty




NASA's NSSDC Master Catalog

Two Line Element Set (TLE):
1 24937U 97050B   20145.21357492 -.00000125 +00000-0 -30253-4 0  9998
2 24937 019.0809 054.6532 7358587 258.6217 018.1232 02.14913918166483
Source of the keplerian elements: AFSPC